QPF
0.03 0.03 0.03 0.04 0.05 0.05 0.04 0.04 0.04 0.03 0.03 0.03 0.04 0.04 0.05 0.06 0.07 0.07 0.06 0.06 0.05 0.04 0.05 0.05 0.06 0.07 0.10 0.10 0.07 0.06 0.06 0.05 0.05 0.04 0.04 0.04 0.04 0.04 0.04 0.04 0.04 0.04 0.04
0.02 0.03 0.03 0.04 0.04 0.04 0.02 0.02 0.03 0.03 0.03 0.03 0.05 0.05 0.05 0.06 0.06 0.05 0.04 0.04 0.04 0.03 0.04 0.05 0.05 0.06 0.08 0.12 0.10 0.07 0.06 0.06 0.05 0.04 0.04 0.03 0.04 0.04 0.05 0.05 0.03 0.02 0.03
0.02 0.02 0.03 0.03 0.03 0.03 0.03 0.03 0.03 0.04 0.04 0.04 0.05 0.05 0.05 0.06 0.05 0.04 0.04 0.03 0.04 0.03 0.04 0.04 0.04 0.03 0.05 0.07 0.09 0.08 0.06 0.05 0.04 0.04 0.03 0.04 0.03 0.04 0.05 0.04 0.04 0.04 0.03
0.02 0.03 0.04 0.04 0.04 0.04 0.04 0.04 0.04 0.04 0.04 0.05 0.06 0.06 0.06 0.06 0.05 0.04 0.03 0.03 0.04 0.03 0.02 0.03 0.03 0.04 0.04 0.05 0.07 0.08 0.07 0.07 0.06 0.05 0.04 0.04 0.05 0.04 0.05 0.04 0.04 0.05 0.04
0.04 0.04 0.04 0.03 0.04 0.03 0.03 0.03 0.03 0.03 0.04 0.04 0.05 0.05 0.08 0.07 0.04 0.03 0.03 0.04 0.05 0.04 0.04 0.04 0.04 0.05 0.06 0.06 0.06 0.08 0.08 0.07 0.07 0.06 0.05 0.05 0.04 0.04 0.04 0.04 0.04 0.05 0.05
0.03 0.03 0.02 0.02 0.03 0.04 0.03 0.02 0.03 0.04 0.05 0.05 0.04 0.04 0.06 0.05 0.03 0.02 0.03 0.05 0.06 0.07 0.08 0.07 0.05 0.05 0.06 0.05 0.04 0.05 0.05 0.04 0.04 0.05 0.05 0.05 0.05 0.06 0.06 0.06 0.06 0.05 0.05
0.02 0.03 0.02 0.03 0.04 0.05 0.04 0.06 0.07 0.07 0.06 0.06 0.04 0.04 0.04 0.04 0.02 0.02 0.03 0.05 0.07 0.07 0.06 0.06 0.05 0.04 0.05 0.05 0.03 0.02 0.02 0.03 0.03 0.04 0.04 0.04 0.05 0.07 0.08 0.07 0.08 0.08 0.07
0.02 0.03 0.03 0.03 0.05 0.07 0.07 0.10 0.12 0.09 0.06 0.04 0.03 0.03 0.03 0.03 0.01 0.01 0.02 0.02 0.04 0.04 0.04 0.03 0.04 0.04 0.04 0.03 0.02 0.02 0.03 0.04 0.04 0.04 0.06 0.06 0.06 0.07 0.08 0.11 0.11 0.12 0.11
0.02 0.03 0.05 0.04 0.04 0.06 0.07 0.08 0.08 0.07 0.06 0.04 0.03 0.03 0.03 0.03 0.01 0.01 0.01 0.02 0.03 0.03 0.03 0.03 0.03 0.03 0.04 0.03 0.03 0.03 0.03 0.04 0.03 0.03 0.04 0.05 0.05 0.06 0.07 0.10 0.10 0.12 0.12
0.03 0.03 0.04 0.05 0.04 0.05 0.04 0.05 0.05 0.04 0.05 0.03 0.02 0.02 0.02 0.02 0.01 0.00 0.01 0.01 0.01 0.02 0.03 0.03 0.03 0.04 0.05 0.04 0.03 0.03 0.03 0.04 0.04 0.03 0.04 0.04 0.04 0.03 0.04 0.05 0.06 0.07 0.09
0.04 0.04 0.04 0.04 0.05 0.04 0.03 0.03 0.03 0.02 0.02 0.02 0.01 0.01 0.01 0.01 0.00 0.00 0.00 0.01 0.01 0.02 0.02 0.02 0.02 0.02 0.03 0.03 0.05 0.03 0.02 0.02 0.02 0.02 0.04 0.04 0.04 0.04 0.03 0.03 0.04 0.05 0.07
0.06 0.05 0.04 0.04 0.04 0.02 0.02 0.02 0.02 0.01 0.01 0.01 0.01 0.01 0.01 0.01 0.00 0.00 0.00 0.00 0.01 0.01 0.01 0.01 0.01 0.01 0.01 0.02 0.04 0.03 0.02 0.02 0.01 0.02 0.04 0.04 0.04 0.04 0.04 0.04 0.04 0.05 0.07
0.05 0.05 0.04 0.03 0.03 0.02 0.02 0.02 0.02 0.02 0.01 0.01 0.01 0.01 0.01 0.00 0.00 0.01 0.01 0.01 0.01 0.01 0.02 0.01 0.02 0.01 0.01 0.01 0.02 0.03 0.02 0.02 0.02 0.04 0.05 0.04 0.04 0.04 0.05 0.05 0.06 0.06 0.06
0.04 0.04 0.04 0.02 0.01 0.01 0.01 0.01 0.02 0.01 0.01 0.01 0.01 0.01 0.01 0.00 0.01 0.02 0.03 0.02 0.02 0.02 0.02 0.03 0.03 0.02 0.02 0.02 0.02 0.03 0.03 0.02 0.03 0.04 0.05 0.04 0.04 0.04 0.05 0.07 0.07 0.07 0.06
0.03 0.02 0.02 0.01 0.01 0.01 0.01 0.01 0.01 0.00 0.01 0.01 0.01 0.01 0.01 0.01 0.02 0.02 0.01 0.01 0.02 0.02 0.02 0.04 0.05 0.04 0.04 0.05 0.03 0.03 0.04 0.03 0.03 0.03 0.04 0.04 0.05 0.05 0.06 0.07 0.07 0.07 0.08
0.02 0.02 0.01 0.01 0.01 0.00 0.00 0.00 0.00 0.00 0.00 0.01 0.01 0.01 0.01 0.01 0.01 0.01 0.01 0.01 0.01 0.01 0.02 0.03 0.03 0.03 0.03 0.03 0.03 0.03 0.03 0.03 0.04 0.04 0.04 0.04 0.04 0.04 0.05 0.05 0.05 0.05 0.06
0.02 0.01 0.01 0.00 0.00 0.00 0.00 0.00 0.01 0.01 0.01 0.01 0.01 0.00 0.00 0.00 0.00 0.00 0.00 0.00 0.00 0.01 0.02 0.02 0.02 0.02 0.02 0.02 0.02 0.02 0.02 0.02 0.03 0.03 0.04 0.05 0.05 0.05 0.07 0.06 0.05 0.04 0.04
0.01 0.01 0.00 0.00 0.00 0.00 0.01 0.01 0.01 0.01 0.01 0.01 0.00 0.00 0.00 0.00 0.00 0.00 0.00 0.01 0.01 0.01 0.02 0.03 0.02 0.01 0.02 0.02 0.02 0.02 0.02 0.02 0.03 0.04 0.05 0.06 0.06 0.05 0.05 0.05 0.05 0.04 0.05
0.01 0.01 0.00 0.00 0.00 0.00 0.01 0.01 0.01 0.00 0.00 0.01 0.00 0.00 0.00 0.00 0.00 0.00 0.01 0.01 0.02 0.02 0.02 0.02 0.01 0.01 0.02 0.02 0.02 0.02 0.02 0.02 0.03 0.04 0.05 0.05 0.05 0.04 0.04 0.04 0.03 0.03 0.05
0.01 0.01 0.01 0.00 0.00 0.00 0.00 0.00 0.00 0.00 0.01 0.01 0.01 0.00 0.00 0.00 0.01 0.01 0.02 0.02 0.01 0.01 0.01 0.01 0.01 0.01 0.01 0.02 0.02 0.02 0.02 0.02 0.03 0.03 0.04 0.04 0.03 0.03 0.03 0.03 0.03 0.03 0.05
0.01 0.01 0.01 0.01 0.00 0.00 0.00 0.00 0.00 0.01 0.01 0.01 0.01 0.00 0.00 0.00 0.01 0.01 0.01 0.01 0.00 0.00 0.00 0.00 0.00 0.00 0.01 0.01 0.01 0.01 0.01 0.02 0.02 0.02 0.02 0.02 0.03 0.02 0.02 0.03 0.03 0.04 0.04
0.01 0.01 0.02 0.01 0.00 0.00 0.00 0.00 0.00 0.00 0.00 0.00 0.00 0.00 0.00 0.01 0.01 0.01 0.01 0.01 0.00 0.00 0.00 0.00 0.00 0.00 0.00 0.00 0.00 0.01 0.01 0.01 0.02 0.02 0.02 0.02 0.02 0.02 0.02 0.03 0.03 0.03 0.03
0.01 0.01 0.02 0.01 0.00 0.00 0.00 0.00 0.00 0.00 0.00 0.00 0.01 0.01 0.01 0.01 0.01 0.01 0.01 0.01 0.00 0.00 0.00 0.00 0.00 0.00 0.00 0.00 0.00 0.00 0.00 0.01 0.02 0.02 0.01 0.01 0.01 0.02 0.02 0.01 0.01 0.02 0.02
0.01 0.01 0.01 0.00 0.00 0.00 0.00 0.00 0.00 0.01 0.01 0.02 0.02 0.01 0.00 0.00 0.00 0.01 0.01 0.01 0.00 0.00 0.00 0.00 0.00 0.00 0.00 0.00 0.00 0.01 0.01 0.01 0.01 0.00 0.01 0.02 0.02 0.02 0.01 0.01 0.01 0.01 0.01
0.00 0.00 0.01 0.01 0.01 0.00 0.00 0.00 0.01 0.01 0.02 0.01 0.01 0.00 0.00 0.00 0.00 0.00 0.00 0.00 0.00 0.00 0.00 0.00 0.00 0.00 0.01 0.01 0.01 0.00 0.01 0.01 0.01 0.01 0.01 0.02 0.03 0.02 0.01 0.01 0.01 0.01 0.01
0.00 0.00 0.00 0.00 0.00 0.01 0.01 0.01 0.02 0.02 0.01 0.00 0.00 0.00 0.00 0.00 0.01 0.00 0.00 0.00 0.00 0.00 0.00 0.00 0.00 0.01 0.01 0.00 0.00 0.00 0.01 0.01 0.01 0.01 0.01 0.02 0.04 0.03 0.02 0.01 0.01 0.01 0.01
MSLP
1015.82 1015.67 1015.48 1015.27 1015.05 1014.82 1014.57 1014.29 1013.98 1013.61 1013.18 1012.69 1012.15 1011.59 1011.01 1010.46 1009.94 1009.48 1009.08 1008.76 1008.49 1008.27 1008.08 1007.89 1007.69 1007.45 1007.18 1006.85 1006.47 1006.06 1005.63 1005.20 1004.79 1004.39 1004.04 1003.72 1003.43 1003.17 1002.91 1002.65 1002.38 1002.10 1001.83
1015.64 1015.49 1015.30 1015.08 1014.84 1014.60 1014.33 1014.04 1013.71 1013.33 1012.90 1012.40 1011.86 1011.29 1010.70 1010.13 1009.59 1009.10 1008.67 1008.32 1008.03 1007.81 1007.62 1007.45 1007.29 1007.10 1006.88 1006.61 1006.31 1005.96 1005.58 1005.19 1004.79 1004.40 1004.03 1003.68 1003.34 1003.02 1002.71 1002.40 1002.08 1001.75 1001.44
1015.51 1015.36 1015.16 1014.93 1014.68 1014.41 1014.12 1013.81 1013.47 1013.08 1012.64 1012.16 1011.62 1011.06 1010.48 1009.91 1009.36 1008.86 1008.42 1008.05 1007.75 1007.51 1007.32 1007.16 1007.01 1006.86 1006.68 1006.46 1006.20 1005.90 1005.56 1005.20 1004.82 1004.43 1004.04 1003.66 1003.29 1002.93 1002.58 1002.22 1001.86 1001.51 1001.16
1015.41 1015.25 1015.05 1014.81 1014.54 1014.25 1013.94 1013.61 1013.25 1012.85 1012.41 1011.94 1011.42 1010.88 1010.33 1009.78 1009.25 1008.75 1008.31 1007.94 1007.62 1007.37 1007.16 1007.00 1006.85 1006.70 1006.54 1006.35 1006.12 1005.85 1005.54 1005.19 1004.82 1004.43 1004.04 1003.64 1003.25 1002.87 1002.49 1002.11 1001.74 1001.37 1001.00
1015.30 1015.15 1014.95 1014.70 1014.42 1014.10 1013.76 1013.40 1013.02 1012.61 1012.17 1011.70 1011.21 1010.71 1010.19 1009.68 1009.18 1008.72 1008.29 1007.92 1007.60 1007.33 1007.10 1006.92 1006.76 1006.60 1006.43 1006.25 1006.03 1005.77 1005.47 1005.13 1004.77 1004.38 1003.99 1003.59 1003.20 1002.81 1002.43 1002.06 1001.68 1001.31 1000.95
1015.17 1015.02 1014.82 1014.56 1014.26 1013.92 1013.55 1013.15 1012.74 1012.31 1011.86 1011.41 1010.94 1010.48 1010.01 1009.55 1009.11 1008.68 1008.28 1007.92 1007.60 1007.32 1007.07 1006.86 1006.67 1006.49 1006.31 1006.11 1005.88 1005.62 1005.33 1005.00 1004.64 1004.26 1003.87 1003.49 1003.11 1002.73 1002.37 1002.02 1001.67 1001.32 1000.96
1014.98 1014.84 1014.64 1014.38 1014.06 1013.68 1013.27 1012.83 1012.37 1011.91 1011.46 1011.01 1010.58 1010.16 1009.75 1009.35 1008.96 1008.59 1008.23 1007.89 1007.58 1007.29 1007.02 1006.78 1006.56 1006.35 1006.14 1005.92 1005.68 1005.42 1005.12 1004.79 1004.44 1004.08 1003.70 1003.33 1002.97 1002.63 1002.29 1001.97 1001.65 1001.33 1001.00
1014.73 1014.60 1014.41 1014.14 1013.79 1013.38 1012.92 1012.44 1011.94 1011.45 1010.98 1010.54 1010.13 1009.76 1009.41 1009.08 1008.75 1008.43 1008.12 1007.81 1007.50 1007.20 1006.92 1006.65 1006.41 1006.17 1005.93 1005.70 1005.45 1005.17 1004.88 1004.56 1004.22 1003.86 1003.51 1003.15 1002.81 1002.49 1002.18 1001.89 1001.60 1001.31 1001.00
1014.44 1014.33 1014.15 1013.87 1013.50 1013.05 1012.55 1012.01 1011.48 1010.96 1010.48 1010.05 1009.67 1009.34 1009.05 1008.78 1008.52 1008.25 1007.98 1007.69 1007.39 1007.09 1006.79 1006.50 1006.23 1005.97 1005.71 1005.46 1005.21 1004.94 1004.66 1004.35 1004.02 1003.67 1003.33 1002.98 1002.65 1002.34 1002.05 1001.77 1001.49 1001.22 1000.94
1014.15 1014.06 1013.88 1013.60 1013.21 1012.73 1012.19 1011.62 1011.05 1010.52 1010.04 1009.62 1009.28 1009.00 1008.77 1008.55 1008.35 1008.12 1007.88 1007.61 1007.31 1006.99 1006.68 1006.36 1006.07 1005.79 1005.52 1005.27 1005.02 1004.77 1004.49 1004.20 1003.88 1003.55 1003.20 1002.85 1002.52 1002.20 1001.89 1001.61 1001.33 1001.06 1000.79
1013.87 1013.80 1013.62 1013.34 1012.94 1012.45 1011.89 1011.31 1010.73 1010.20 1009.74 1009.36 1009.07 1008.84 1008.65 1008.49 1008.32 1008.13 1007.90 1007.63 1007.32 1006.98 1006.63 1006.29 1005.97 1005.67 1005.41 1005.16 1004.92 1004.68 1004.43 1004.15 1003.85 1003.52 1003.16 1002.80 1002.44 1002.09 1001.75 1001.44 1001.14 1000.85 1000.57
1013.60 1013.54 1013.38 1013.10 1012.71 1012.22 1011.67 1011.10 1010.55 1010.05 1009.64 1009.31 1009.07 1008.89 1008.76 1008.64 1008.50 1008.32 1008.09 1007.80 1007.45 1007.08 1006.69 1006.32 1005.97 1005.65 1005.38 1005.14 1004.92 1004.70 1004.47 1004.22 1003.92 1003.59 1003.23 1002.84 1002.44 1002.05 1001.66 1001.30 1000.96 1000.64 1000.33
1013.33 1013.28 1013.12 1012.85 1012.48 1012.01 1011.50 1010.98 1010.48 1010.05 1009.71 1009.45 1009.28 1009.17 1009.09 1009.00 1008.88 1008.70 1008.44 1008.11 1007.72 1007.30 1006.86 1006.44 1006.06 1005.73 1005.45 1005.22 1005.02 1004.82 1004.62 1004.39 1004.11 1003.78 1003.41 1002.99 1002.55 1002.11 1001.66 1001.24 1000.84 1000.47 1000.13
1013.01 1012.96 1012.80 1012.55 1012.21 1011.79 1011.33 1010.88 1010.48 1010.14 1009.89 1009.73 1009.64 1009.60 1009.57 1009.51 1009.39 1009.19 1008.90 1008.53 1008.09 1007.61 1007.12 1006.66 1006.24 1005.89 1005.60 1005.38 1005.20 1005.03 1004.86 1004.65 1004.39 1004.07 1003.69 1003.26 1002.79 1002.29 1001.79 1001.31 1000.85 1000.42 1000.04
1012.61 1012.54 1012.39 1012.15 1011.84 1011.48 1011.10 1010.75 1010.45 1010.22 1010.08 1010.02 1010.02 1010.05 1010.06 1010.03 1009.92 1009.70 1009.38 1008.97 1008.48 1007.95 1007.42 1006.92 1006.48 1006.11 1005.83 1005.62 1005.46 1005.32 1005.18 1005.00 1004.76 1004.46 1004.09 1003.64 1003.15 1002.62 1002.08 1001.55 1001.04 1000.56 1000.12
1012.12 1012.01 1011.85 1011.62 1011.35 1011.05 1010.76 1010.50 1010.31 1010.20 1010.18 1010.22 1010.30 1010.39 1010.45 1010.44 1010.34 1010.11 1009.78 1009.33 1008.82 1008.26 1007.71 1007.20 1006.75 1006.39 1006.12 1005.93 1005.79 1005.69 1005.57 1005.43 1005.22 1004.94 1004.58 1004.15 1003.66 1003.12 1002.55 1001.99 1001.44 1000.92 1000.43
1011.54 1011.39 1011.21 1010.98 1010.74 1010.49 1010.28 1010.12 1010.03 1010.03 1010.10 1010.23 1010.39 1010.53 1010.63 1010.65 1010.55 1010.34 1010.00 1009.57 1009.06 1008.51 1007.98 1007.49 1007.07 1006.73 1006.49 1006.33 1006.22 1006.15 1006.06 1005.95 1005.77 1005.51 1005.18 1004.76 1004.28 1003.75 1003.18 1002.61 1002.04 1001.49 1000.97
1010.93 1010.73 1010.51 1010.28 1010.05 1009.85 1009.70 1009.62 1009.61 1009.69 1009.84 1010.03 1010.25 1010.44 1010.57 1010.61 1010.54 1010.35 1010.05 1009.65 1009.19 1008.70 1008.23 1007.79 1007.43 1007.16 1006.96 1006.84 1006.77 1006.72 1006.66 1006.56 1006.40 1006.17 1005.85 1005.46 1005.00 1004.48 1003.93 1003.36 1002.79 1002.22 1001.68
1010.34 1010.08 1009.83 1009.58 1009.36 1009.19 1009.08 1009.05 1009.11 1009.24 1009.43 1009.67 1009.91 1010.13 1010.28 1010.35 1010.32 1010.18 1009.94 1009.61 1009.24 1008.85 1008.48 1008.15 1007.88 1007.68 1007.56 1007.48 1007.45 1007.41 1007.36 1007.27 1007.11 1006.88 1006.57 1006.19 1005.74 1005.25 1004.72 1004.16 1003.60 1003.03 1002.48
1009.82 1009.51 1009.21 1008.95 1008.73 1008.58 1008.50 1008.50 1008.58 1008.74 1008.96 1009.21 1009.47 1009.69 1009.86 1009.96 1009.97 1009.89 1009.74 1009.52 1009.27 1009.01 1008.77 1008.57 1008.42 1008.32 1008.27 1008.25 1008.23 1008.21 1008.15 1008.03 1007.85 1007.60 1007.28 1006.89 1006.45 1005.96 1005.45 1004.92 1004.37 1003.82 1003.26
1009.38 1009.03 1008.70 1008.43 1008.21 1008.06 1008.00 1008.01 1008.11 1008.28 1008.50 1008.75 1009.00 1009.23 1009.41 1009.54 1009.59 1009.59 1009.53 1009.43 1009.32 1009.21 1009.12 1009.06 1009.04 1009.04 1009.07 1009.09 1009.09 1009.06 1008.97 1008.81 1008.58 1008.28 1007.92 1007.50 1007.04 1006.55 1006.04 1005.52 1004.99 1004.46 1003.91
1009.03 1008.64 1008.29 1008.00 1007.78 1007.64 1007.59 1007.62 1007.73 1007.90 1008.12 1008.36 1008.60 1008.82 1009.02 1009.17 1009.27 1009.34 1009.38 1009.40 1009.43 1009.46 1009.52 1009.60 1009.69 1009.79 1009.88 1009.94 1009.94 1009.88 1009.74 1009.52 1009.22 1008.85 1008.42 1007.94 1007.45 1006.94 1006.42 1005.91 1005.40 1004.88 1004.35
1008.70 1008.29 1007.92 1007.63 1007.41 1007.29 1007.26 1007.30 1007.42 1007.60 1007.82 1008.06 1008.30 1008.52 1008.73 1008.90 1009.05 1009.18 1009.30 1009.43 1009.58 1009.74 1009.92 1010.11 1010.31 1010.48 1010.62 1010.69 1010.68 1010.58 1010.38 1010.08 1009.70 1009.24 1008.73 1008.19 1007.64 1007.10 1006.56 1006.04 1005.54 1005.04 1004.54
1008.34 1007.89 1007.52 1007.22 1007.03 1006.92 1006.91 1006.99 1007.14 1007.34 1007.58 1007.83 1008.08 1008.32 1008.54 1008.74 1008.92 1009.11 1009.30 1009.50 1009.73 1009.99 1010.26 1010.53 1010.80 1011.02 1011.18 1011.26 1011.23 1011.09 1010.83 1010.46 1009.99 1009.45 1008.86 1008.25 1007.64 1007.05 1006.49 1005.96 1005.46 1004.98 1004.51
1007.87 1007.40 1007.01 1006.72 1006.53 1006.46 1006.49 1006.60 1006.80 1007.04 1007.32 1007.61 1007.89 1008.16 1008.40 1008.63 1008.85 1009.07 1009.30 1009.56 1009.84 1010.15 1010.47 1010.80 1011.10 1011.35 1011.52 1011.60 1011.55 1011.37 1011.07 1010.64 1010.11 1009.50 1008.85 1008.17 1007.51 1006.88 1006.29 1005.74 1005.25 1004.78 1004.34
1007.27 1006.76 1006.36 1006.06 1005.89 1005.84 1005.91 1006.08 1006.33 1006.64 1006.98 1007.32 1007.66 1007.97 1008.26 1008.52 1008.78 1009.02 1009.28 1009.56 1009.86 1010.19 1010.53 1010.87 1011.18 1011.44 1011.62 1011.69 1011.64 1011.44 1011.11 1010.66 1010.09 1009.45 1008.75 1008.04 1007.34 1006.67 1006.06 1005.50 1005.00 1004.55 1004.13
Thickness
5653 5651 5649 5648 5648 5647 5645 5644 5642 5641 5640 5639 5638 5637 5636 5634 5632 5629 5628 5626 5623 5621 5619 5618 5616 5615 5614 5613 5611 5609 5608 5606 5605 5609 5610 5611 5609 5608 5610 5610 5612 5613 5615
5649 5647 5645 5645 5644 5643 5642 5640 5639 5638 5637 5636 5635 5634 5633 5631 5628 5626 5623 5622 5619 5617 5615 5614 5612 5610 5608 5606 5604 5603 5601 5599 5598 5598 5600 5601 5600 5601 5601 5601 5605 5608 5609
5647 5645 5643 5642 5641 5639 5638 5638 5637 5635 5634 5633 5632 5631 5630 5628 5625 5623 5620 5617 5615 5613 5611 5609 5607 5604 5601 5600 5597 5596 5595 5594 5592 5591 5593 5594 5594 5594 5593 5595 5597 5598 5602
5645 5643 5641 5639 5638 5637 5637 5636 5635 5633 5631 5630 5629 5628 5627 5625 5622 5620 5617 5614 5612 5609 5607 5605 5602 5599 5596 5593 5591 5589 5587 5586 5586 5586 5586 5587 5586 5587 5586 5587 5589 5591 5594
5642 5641 5639 5638 5637 5636 5635 5634 5633 5631 5630 5628 5627 5626 5625 5622 5619 5614 5612 5611 5607 5605 5603 5600 5597 5593 5589 5586 5585 5583 5581 5579 5580 5579 5579 5580 5580 5579 5579 5581 5582 5585 5587
5640 5640 5639 5637 5636 5634 5633 5633 5631 5629 5627 5626 5624 5622 5620 5618 5610 5606 5603 5604 5603 5600 5597 5595 5593 5589 5585 5580 5576 5573 5571 5571 5572 5571 5572 5572 5571 5572 5573 5574 5575 5576 5578
5639 5639 5638 5636 5634 5633 5632 5631 5629 5626 5624 5622 5621 5619 5615 5610 5604 5600 5598 5598 5598 5596 5593 5590 5589 5587 5581 5578 5574 5570 5567 5562 5560 5562 5564 5564 5564 5565 5564 5566 5567 5568 5570
5638 5638 5637 5635 5634 5632 5630 5628 5626 5624 5622 5619 5617 5614 5610 5606 5599 5596 5594 5595 5595 5592 5589 5586 5582 5579 5576 5571 5570 5569 5566 5563 5560 5558 5557 5557 5557 5556 5556 5556 5557 5560 5563
5638 5637 5635 5634 5632 5630 5628 5625 5623 5621 5618 5616 5614 5610 5606 5602 5595 5592 5589 5593 5591 5589 5586 5582 5578 5575 5567 5563 5564 5563 5561 5559 5557 5553 5551 5550 5549 5548 5548 5550 5553 5555 5557
5636 5635 5634 5632 5629 5628 5625 5623 5621 5618 5616 5615 5612 5608 5604 5600 5593 5589 5585 5590 5588 5586 5583 5579 5572 5567 5561 5557 5558 5557 5555 5554 5552 5552 5548 5546 5546 5546 5543 5543 5546 5548 5551
5635 5634 5632 5630 5628 5626 5623 5620 5618 5617 5614 5612 5609 5606 5602 5597 5591 5585 5581 5583 5583 5582 5580 5576 5570 5560 5556 5552 5549 5549 5546 5543 5545 5545 5544 5544 5543 5543 5542 5541 5540 5541 5542
5633 5632 5630 5628 5627 5625 5621 5619 5617 5615 5613 5611 5607 5605 5602 5597 5589 5583 5577 5574 5572 5574 5572 5569 5564 5555 5551 5548 5546 5542 5538 5536 5540 5540 5539 5538 5538 5538 5537 5536 5535 5535 5535
5631 5629 5628 5626 5624 5622 5620 5618 5616 5613 5613 5611 5607 5603 5600 5596 5589 5580 5576 5572 5568 5568 5567 5560 5556 5552 5549 5548 5543 5538 5536 5537 5537 5535 5534 5533 5532 5532 5531 5531 5530 5530 5530
5629 5628 5627 5625 5623 5620 5618 5617 5615 5612 5610 5607 5604 5600 5597 5593 5587 5581 5576 5574 5568 5567 5565 5560 5554 5550 5548 5544 5541 5540 5537 5534 5532 5530 5529 5528 5528 5528 5527 5527 5526 5526 5526
5628 5627 5626 5626 5623 5619 5616 5613 5611 5606 5602 5598 5597 5595 5591 5586 5576 5567 5566 5567 5564 5561 5557 5558 5556 5554 5550 5546 5543 5539 5535 5532 5528 5526 5524 5523 5523 5522 5522 5523 5521 5521 5520
5626 5626 5626 5625 5623 5621 5617 5613 5605 5601 5595 5591 5586 5583 5582 5574 5568 5564 5561 5557 5555 5552 5553 5556 5553 5550 5547 5543 5540 5536 5532 5528 5525 5523 5521 5519 5518 5517 5517 5517 5516 5515 5515
5625 5624 5625 5625 5623 5620 5617 5615 5611 5603 5595 5590 5585 5580 5575 5571 5566 5563 5559 5556 5554 5550 5553 5552 5548 5545 5542 5539 5536 5532 5528 5524 5521 5519 5516 5514 5513 5512 5511 5511 5510 5509 5509
5625 5623 5622 5622 5621 5619 5617 5615 5612 5608 5604 5598 5589 5581 5576 5572 5567 5563 5560 5558 5560 5556 5554 5549 5546 5542 5537 5534 5531 5527 5523 5519 5516 5514 5511 5508 5507 5506 5506 5505 5504 5503 5502
5624 5624 5622 5622 5621 5619 5617 5615 5612 5608 5605 5600 5595 5588 5579 5574 5569 5565 5561 5563 5561 5557 5553 5548 5544 5539 5534 5530 5526 5523 5519 5515 5511 5509 5506 5503 5502 5501 5501 5500 5499 5496 5495
5623 5619 5618 5620 5620 5618 5616 5614 5611 5608 5604 5601 5596 5591 5585 5581 5578 5572 5567 5563 5559 5555 5551 5546 5541 5536 5531 5527 5523 5519 5516 5512 5508 5505 5502 5500 5498 5497 5496 5495 5495 5494 5494
5625 5623 5616 5618 5619 5618 5615 5613 5610 5607 5605 5601 5596 5589 5578 5581 5578 5573 5568 5563 5558 5553 5548 5543 5539 5535 5530 5525 5521 5516 5512 5508 5504 5501 5499 5496 5495 5493 5492 5491 5490 5490 5490
5625 5624 5622 5620 5618 5616 5614 5612 5610 5607 5604 5599 5595 5590 5580 5580 5578 5572 5567 5562 5557 5552 5547 5542 5538 5533 5527 5521 5516 5512 5508 5504 5500 5496 5494 5493 5491 5490 5488 5487 5486 5486 5486
5624 5623 5621 5619 5617 5613 5612 5611 5609 5607 5603 5600 5595 5590 5586 5581 5577 5571 5566 5561 5555 5550 5545 5539 5534 5529 5523 5517 5513 5509 5504 5499 5494 5490 5489 5489 5488 5486 5485 5484 5483 5483 5483
5624 5622 5621 5619 5617 5616 5614 5611 5609 5606 5603 5598 5594 5590 5586 5580 5575 5569 5564 5559 5553 5548 5543 5537 5531 5526 5519 5514 5509 5505 5497 5490 5486 5486 5485 5484 5484 5483 5482 5481 5480 5480 5479
5623 5621 5619 5617 5616 5615 5613 5611 5608 5606 5602 5598 5594 5590 5586 5581 5575 5569 5564 5558 5552 5546 5540 5534 5529 5523 5517 5512 5506 5499 5490 5485 5481 5479 5480 5481 5480 5479 5478 5477 5477 5476 5475
5622 5621 5619 5617 5616 5614 5612 5610 5608 5605 5602 5598 5595 5590 5585 5580 5575 5569 5563 5557 5551 5545 5539 5533 5526 5521 5515 5509 5501 5493 5487 5483 5479 5476 5475 5478 5477 5475 5474 5474 5473 5473 5472